"2010-05-15 00:00:00",112780,12.01,214,4.614,0.665,11.91,102.5093,5.704,6.9,86.9,0,110,13.43,6.48,176.0
"2010-05-15 00:00:30",112781,11.61,212.4,4.734,0.676,11.88,102.5093,5.704,6.912,87,0,109.9,13.43,6.48,174.4
"2010-05-15 00:01:00",112782,12.19,213.8,4.31,0.642,11.74,102.5093,5.704,6.894,87.1,0,109.9,13.43,6.48,175.8
"2010-05-15 00:01:30",112783,12.28,216.5,3.54,0.672,11.56,102.509,5.703,6.91,87.1,0,109.9,13.43,6.48,178.5
"2010-05-15 00:02:00",112784,12.05,213.6,4.556,0.821,11.56,102.509,5.703,6.902,87.1,0,109.9,13.44,6.48,175.6
"2010-05-15 00:02:30",112785,12.73,214,4.523,0.577,11.62,102.5085,5.702,6.903,87.2,0,109.9,13.44,6.47,176.0
"2010-05-15 00:03:00",112786,12.8,213.1,4.582,0.747,11.6,102.5025,5.687,6.906,87.3,0,109.9,13.44,6.46,175.1
"2010-05-15 00:03:30",112787,13.1,215.5,3.81,0.515,11.69,102.4977,5.674,6.897,87.4,0,109.9,13.44,6.45,177.5
"2010-05-15 00:04:00",112788,12.56,213.3,5.04,0.571,11.82,102.4932,5.663,6.898,87.3,0,109.9,13.44,6.43,175.3
"2010-05-15 00:04:30",112789,11.85,215,4.522,0.677,11.68,102.4924,5.661,6.914,87.5,0,109.9,13.44,6.43,177.0
"2010-05-15 00:05:00",112790,12.2,214.4,4.947,0.688,11.58,102.4813,5.632,6.902,87.7,0,109.9,13.44,6.40,176.4
"2010-05-15 00:05:30",112791,12.55,216.1,4.096,0.58,11.78,102.4763,5.62,6.905,87.8,0,109.9,13.44,6.39,178.1
"2010-05-15 00:06:00",112792,12.69,216.8,4.491,0.541,11.82,102.4754,5.617,6.894,87.7,0,109.9,13.44,6.39,178.8
"2010-05-15 00:06:30",112793,12.52,217.8,4.108,0.691,11.61,102.4754,5.617,6.881,87.7,0,109.9,13.44,6.39,179.8
"2010-05-15 00:07:00",112794,11.96,217.1,4.085,0.719,11.6,102.4754,5.617,6.869,87.8,0,109.9,13.44,6.39,179.1
"2010-05-15 00:07:30",112795,12.38,219,3.856,0.514,11.91,102.4754,5.617,6.873,88,0,109.9,13.44,6.39,181.0
"2010-05-15 00:08:00",112796,11.99,218.9,4.265,0.548,11.59,102.4754,5.617,6.873,88.2,0,109.9,13.44,6.39,180.9
"2010-05-15 00:08:30",112797,12.24,219.3,4.543,0.694,11.69,102.4754,5.617,6.885,88.6,0,109.9,13.44,6.39,181.3
"2010-05-15 00:09:00",112798,12.5,220.7,4.194,0.723,11.67,102.4754,5.617,6.873,88.6,0,109.9,13.44,6.39,182.7
"2010-05-15 00:09:30",112799,11.9,221,4.017,0.796,11.73,102.4754,5.617,6.871,88.6,0,109.9,13.44,6.39,183.0
"2010-05-15 00:10:00",112800,12.72,221.6,4.395,0.667,11.55,102.4754,5.617,6.865,88.5,0,110,13.44,6.39,183.6
"2010-05-15 00:10:30",112801,12.78,223.9,4.33,0.563,11.77,102.4754,5.617,6.856,88.2,0,109.9,13.44,6.39,185.9
"2010-05-15 00:11:00",112802,12.18,222.1,4.382,0.695,11.81,102.4754,5.617,6.843,87.8,0,109.9,13.44,6.39,184.1
"2010-05-15 00:11:30",112803,12.66,223.4,4.15,0.409,11.98,102.4754,5.617,6.869,88.1,0,109.9,13.44,6.39,185.4
"2010-05-15 00:12:00",112804,12.16,225.4,3.826,0.691,11.6,102.4754,5.617,6.846,87.9,0,109.9,13.44,6.39,187.4
"2010-05-15 00:12:30",112805,12.68,225.3,4.543,0.576,11.86,102.4754,5.617,6.854,87.8,0,109.9,13.44,6.39,187.3
"2010-05-15 00:13:00",112806,12.82,226.7,4.621,0.576,11.88,102.4754,5.617,6.858,87.8,0,109.9,13.43,6.39,188.7
"2010-05-15 00:13:30",112807,12.36,224.8,4.409,0.798,12.03,102.4754,5.617,6.842,87.3,0,109.9,13.43,6.39,186.8
"2010-05-15 00:14:00",112808,12.18,227.5,4.664,0.771,11.7,102.4754,5.617,6.848,87.3,0,110,13.43,6.39,189.5
"2010-05-15 00:14:30",112809,12.25,226.7,4.871,0.519,11.91,102.4757,5.618,6.858,87.3,0,109.9,13.43,6.39,188.7
"2010-05-15 00:15:00",112810,12.24,226,3.959,0.642,11.77,102.4754,5.617,6.845,87,0,109.9,13.43,6.39,188.0
"2010-05-15 00:15:30",112811,12.02,226.5,3.605,0.58,11.87,102.4754,5.617,6.83,86.9,0,109.9,13.43,6.39,188.5
"2010-05-15 00:16:00",112812,12.39,225.6,3.838,0.568,11.69,102.4754,5.617,6.856,86.8,0,109.9,13.43,6.39,187.6
"2010-05-15 00:16:30",112813,12.52,226.3,4.338,0.532,11.84,102.4754,5.617,6.847,86.5,0,109.9,13.43,6.39,188.3
"2010-05-15 00:17:00",112814,12.22,226.3,4.484,0.579,11.88,102.4754,5.617,6.849,86.3,0,109.9,13.44,6.39,188.3
"2010-05-15 00:17:30",112815,12.04,226.2,3.955,0.524,11.93,102.4754,5.617,6.851,86.2,0,109.9,13.44,6.39,188.2
"2010-05-15 00:18:00",112816,11.97,226.2,4.274,0.503,11.96,102.4754,5.617,6.85,86.2,0,109.9,13.44,6.39,188.2
"2010-05-15 00:18:30",112817,11.91,226,3.97,0.681,11.86,102.4757,5.618,6.869,86.3,0,109.9,13.45,6.39,188.0
"2010-05-15 00:19:00",112818,12.19,226.7,3.937,0.675,11.84,102.4757,5.618,6.859,86.2,0,109.9,13.45,6.39,188.7
"2010-05-15 00:19:30",112819,12.18,228.6,3.286,0.586,11.87,102.4754,5.617,6.841,86.1,0,109.9,13.44,6.39,190.6
"2010-05-15 00:20:00",112820,12.14,228.2,4.064,0.537,11.84,102.4766,5.62,6.849,86.1,0,110,13.45,6.39,190.2
"2010-05-15 00:20:30",112821,12.52,228.4,3.881,0.601,11.93,102.4766,5.62,6.846,86,0,109.9,13.45,6.39,190.4
"2010-05-15 00:21:00",112822,12.52,229.5,4.035,0.563,11.87,102.4757,5.618,6.855,85.8,0,109.9,13.45,6.39,191.5
"2010-05-15 00:21:30",112823,12.61,229.9,3.799,0.406,12.16,102.476,5.619,6.852,85.6,0,109.9,13.45,6.39,191.9
"2010-05-15 00:22:00",112824,12.67,230.4,3.958,0.521,12.1,102.4763,5.62,6.841,85.5,0,109.9,13.45,6.39,192.4
"2010-05-15 00:22:30",112825,12.18,231.5,4.005,0.605,12.17,102.4757,5.618,6.881,85.6,0,109.9,13.45,6.39,193.5
"2010-05-15 00:23:00",112826,12.56,230.4,3.773,0.697,12.11,102.4774,5.623,6.846,85.6,0,109.9,13.45,6.39,192.4
"2010-05-15 00:23:30",112827,12.54,230.2,3.871,0.578,12.11,102.4771,5.622,6.851,85.7,0,109.9,13.45,6.39,192.2
"2010-05-15 00:24:00",112828,12.76,229.7,3.937,0.555,12.18,102.4769,5.621,6.841,85.7,0,109.9,13.45,6.39,191.7
"2010-05-15 00:24:30",112829,12.72,230.2,3.597,0.788,12.23,102.4771,5.622,6.85,85.5,0,109.9,13.45,6.39,192.2
"2010-05-15 00:25:00",112830,12.72,228.6,3.861,0.591,12.34,102.4763,5.62,6.846,85.4,0,109.9,13.45,6.39,190.6
"2010-05-15 00:25:30",112831,12.52,228.8,3.276,0.651,12.46,102.4792,5.627,6.85,85.4,0,109.9,13.45,6.40,190.8
"2010-05-15 00:26:00",112832,12.2,230.5,4.174,0.573,12.14,102.48,5.629,6.842,85.7,0,109.9,13.45,6.40,192.5
"2010-05-15 00:26:30",112833,11.85,229.1,4.435,0.542,12.18,102.4792,5.627,6.869,86,0,109.9,13.45,6.40,191.1
"2010-05-15 00:27:00",112834,11.99,228.1,4.73,0.589,12.21,102.48,5.629,6.858,86.2,0,109.9,13.45,6.40,190.1
"2010-05-15 00:27:30",112835,12.08,227.2,3.801,0.577,12.23,102.4783,5.625,6.868,86.1,0,109.9,13.45,6.40,189.2
"2010-05-15 00:28:00",112836,12,228.4,4.835,0.417,12,102.4789,5.626,6.877,86.2,0,109.9,13.45,6.40,190.4
"2010-05-15 00:28:30",112837,12.1,226.8,4.697,0.552,12.34,102.4792,5.627,6.882,86.5,0,109.9,13.45,6.40,188.8
"2010-05-15 00:29:00",112838,12,226.8,3.974,0.72,11.97,102.4783,5.625,6.857,86.4,0,109.9,13.45,6.40,188.8
"2010-05-15 00:29:30",112839,11.77,227.8,4.438,0.358,12.05,102.4783,5.625,6.85,86.6,0,109.9,13.44,6.40,189.8
"2010-05-15 00:30:00",112840,11.33,231.1,5.862,0.671,11.72,102.4795,5.628,6.86,87.1,0,109.9,13.44,6.40,193.1
"2010-05-15 00:30:30",112841,12.04,224.8,4.562,0.718,11.95,102.4781,5.624,6.874,87.3,0,109.9,13.44,6.40,186.8
"2010-05-15 00:31:00",112842,12.01,224.8,3.738,0.62,11.81,102.4775,5.623,6.834,86.6,0,109.9,13.44,6.39,186.8
"2010-05-15 00:31:30",112843,11.46,225.1,3.716,0.515,11.97,102.4821,5.634,6.834,86.1,0,109.9,13.44,6.41,187.1
"2010-05-15 00:32:00",112844,10.99,226.3,4.273,0.577,11.46,102.4838,5.639,6.834,86.3,0,109.9,13.44,6.41,188.3
"2010-05-15 00:32:30",112845,10.92,227,4.522,0.781,11.41,102.4824,5.635,6.858,86.8,0,109.9,13.44,6.41,189.0
"2010-05-15 00:33:00",112846,11.62,225.3,3.542,0.521,11.61,102.4841,5.64,6.842,86.9,0,109.9,13.44,6.41,187.3
"2010-05-15 00:33:30",112847,11.3,226.5,3.209,0.612,11.68,102.481,5.631,6.85,86.6,0,109.9,13.45,6.40,188.5
"2010-05-15 00:34:00",112848,11.41,223.4,3.855,0.524,11.62,102.4793,5.627,6.83,86.6,0,109.9,13.45,6.40,185.4
"2010-05-15 00:34:30",112849,11.3,223.1,4.511,0.516,11.55,102.4807,5.631,6.85,86.6,0,109.9,13.45,6.40,185.1
"2010-05-15 00:35:00",112850,11,221.6,4.743,0.624,11.55,102.4836,5.638,6.839,86.7,0,109.9,13.45,6.41,183.6
"2010-05-15 00:35:30",112851,10.92,221.2,3.818,0.393,11.56,102.4856,5.643,6.845,86.8,0,109.9,13.45,6.42,183.2
"2010-05-15 00:36:00",112852,10.84,221.7,3.781,0.656,11.05,102.4816,5.633,6.84,86.9,0,109.9,13.45,6.40,183.7
"2010-05-15 00:36:30",112853,10.74,221.5,4.069,0.604,11.09,102.4785,5.625,6.838,87,0,109.9,13.45,6.40,183.5
"2010-05-15 00:37:00",112854,10.81,220,3.95,0.571,10.98,102.4757,5.618,6.824,87.1,0,109.9,13.45,6.39,182.0
"2010-05-15 00:37:30",112855,10.99,219.8,3.933,0.388,11.23,102.4729,5.611,6.841,87.4,0,109.9,13.45,6.38,181.8
"2010-05-15 00:38:00",112856,10.56,220.7,4.206,0.507,11.03,102.4676,5.597,6.823,87.4,0,109.9,13.45,6.37,182.7
"2010-05-15 00:38:30",112857,10.34,221.4,4.215,0.554,11.1,102.4648,5.59,6.842,87.6,0,109.9,13.45,6.36,183.4
"2010-05-15 00:39:00",112858,10.54,220,4.206,0.579,11.28,102.4594,5.576,6.821,87.8,0,109.9,13.45,6.35,182.0
"2010-05-15 00:39:30",112859,10.34,219.2,4.139,0.52,11.41,102.4577,5.572,6.822,87.7,0,109.9,13.45,6.34,181.2
"2010-05-15 00:40:00",112860,10.3,218.5,4.536,0.637,11.25,102.4574,5.571,6.811,87.7,0,110,13.45,6.34,180.5
"2010-05-15 00:40:30",112861,10.01,218.6,4.287,0.544,11.17,102.4597,5.577,6.828,87.8,0,109.9,13.45,6.35,180.6
"2010-05-15 00:41:00",112862,10.25,219.7,4.293,0.643,11.05,102.4603,5.579,6.785,88.1,0,109.9,13.45,6.35,181.7
"2010-05-15 00:41:30",112863,10.24,217.6,3.842,0.657,11.33,102.4606,5.58,6.8,88.3,0,109.9,13.45,6.35,179.6
"2010-05-15 00:42:00",112864,9.93,218.1,4.091,0.649,11.08,102.4612,5.581,6.774,88.2,0,109.9,13.45,6.35,180.1
"2010-05-15 00:42:30",112865,10.05,217.7,3.998,0.672,10.99,102.4618,5.582,6.789,88.4,0,109.9,13.45,6.35,179.7
"2010-05-15 00:43:00",112866,10.27,217.9,3.784,0.532,10.9,102.4618,5.582,6.785,88.5,0,109.9,13.45,6.35,179.9
"2010-05-15 00:43:30",112867,10.06,217,3.94,0.667,11.09,102.4629,5.585,6.771,88.4,0,109.9,13.45,6.36,179.0
"2010-05-15 00:44:00",112868,9.33,214.3,6.267,1.097,9.51,102.4606,5.58,6.714,88.5,0,109.9,13.45,6.35,176.3
"2010-05-15 00:44:30",112869,8.19,208.5,5.574,1.081,7.703,102.4641,5.588,6.541,88.4,0,109.9,13.45,6.36,170.5
"2010-05-15 00:45:00",112870,8.57,210.9,5.919,1.279,9.04,102.4644,5.589,6.627,88.4,0,109.9,13.45,6.36,172.9
"2010-05-15 00:45:30",112871,8.96,216.6,6.226,1.137,10.78,102.4647,5.59,6.709,88.6,0,109.9,13.45,6.36,178.6
"2010-05-15 00:46:00",112872,9.3,218.7,4.298,0.776,11.68,102.4655,5.592,6.762,88.9,0,109.9,13.45,6.36,180.7
"2010-05-15 00:46:30",112873,9.75,218.2,3.797,0.688,12.13,102.4633,5.586,6.79,89.1,0,109.9,13.45,6.36,180.2
"2010-05-15 00:47:00",112874,9.55,216,3.978,0.711,11.81,102.4599,5.578,6.758,88.8,0,109.9,13.45,6.35,178.0
"2010-05-15 00:47:30",112875,10.07,219.4,3.394,0.616,11.75,102.4639,5.588,6.766,88.8,0,109.9,13.45,6.36,181.4
"2010-05-15 00:48:00",112876,9.67,218.7,4.176,0.844,11.69,102.4591,5.576,6.748,88.8,0,109.9,13.45,6.35,180.7
"2010-05-15 00:48:30",112877,9.34,218.5,4.515,0.779,11.03,102.4588,5.575,6.687,88.9,0,109.9,13.45,6.35,180.5
"2010-05-15 00:49:00",112878,9.02,214.1,5.563,1.142,10.59,102.4549,5.565,6.685,88.8,0,109.9,13.45,6.34,176.1
"2010-05-15 00:49:30",112879,9.1,216.5,5.357,0.97,10.33,102.4503,5.553,6.646,88.9,0,109.9,13.45,6.32,178.5
"2010-05-15 00:50:00",112880,9.13,215.6,5.316,1.221,10.05,102.4393,5.525,6.622,88.7,0,109.9,13.45,6.30,177.6
"2010-05-15 00:50:30",112881,8.89,216.2,5.989,1.223,10.27,102.4419,5.532,6.663,88.8,0,109.9,13.46,6.30,178.2
"2010-05-15 00:51:00",112882,9.06,219,5.927,1.039,11.09,102.4385,5.523,6.688,89,0,109.9,13.46,6.29,181.0
"2010-05-15 00:51:30",112883,9.52,217.7,3.174,0.673,11.57,102.4351,5.514,6.721,89.1,0,109.9,13.46,6.29,179.7
"2010-05-15 00:52:00",112884,9.25,218.2,3.425,0.775,11.24,102.4354,5.515,6.748,89.2,0,109.9,13.46,6.29,180.2
"2010-05-15 00:52:30",112885,9.16,218.2,3.209,0.772,11.29,102.4345,5.513,6.713,89.1,0,109.9,13.46,6.28,180.2
"2010-05-15 00:53:00",112886,8.32,216.2,6.502,1.156,9.99,102.4357,5.516,6.629,89,0,109.9,13.46,6.29,178.2
"2010-05-15 00:53:30",112887,8.04,214,6.117,1.315,9.38,102.4368,5.519,6.679,89.1,0,109.9,13.46,6.29,176.0
"2010-05-15 00:54:00",112888,8.2,215.5,6.72,1.218,9.42,102.438,5.522,6.53,89.1,0,109.9,13.46,6.29,177.5
"2010-05-15 00:54:30",112889,8.4,215.1,4.356,1.258,10.86,102.4365,5.518,6.705,89.4,0,109.9,13.46,6.29,177.1
"2010-05-15 00:55:00",112890,9.06,215.8,4.065,0.52,11.83,102.4383,5.522,6.722,89.5,0,109.8,13.46,6.29,177.8
"2010-05-15 00:55:30",112891,8.94,215.1,4.088,0.785,11.78,102.4386,5.523,6.709,89.6,0,109.9,13.46,6.29,177.1
"2010-05-15 00:56:00",112892,8.26,212.2,6.728,1.211,10.61,102.4377,5.521,6.685,89.5,0,109.9,13.46,6.29,174.2
"2010-05-15 00:56:30",112893,8.3,211.9,5.507,1.134,10.63,102.438,5.522,6.66,89.5,0,109.9,13.46,6.29,173.9
"2010-05-15 00:57:00",112894,7.751,207.1,6.143,1.151,10.11,102.438,5.522,6.61,89.5,0,109.9,13.46,6.29,169.1
"2010-05-15 00:57:30",112895,7.492,207.8,5.98,1.102,10.62,102.4496,5.551,6.629,89.7,0,109.9,13.46,6.32,169.8
"2010-05-15 00:58:00",112896,7.644,210.3,6.224,1.18,9.77,102.4646,5.59,6.607,89.9,0,109.9,13.46,6.36,172.3
"2010-05-15 00:58:30",112897,8.35,214.4,3.359,0.877,11.45,102.4595,5.577,6.724,90,0,109.9,13.46,6.35,176.4
"2010-05-15 00:59:00",112898,7.649,207.5,7.07,1.205,10.83,102.4496,5.551,6.67,90,0,109.9,13.46,6.32,169.5
"2010-05-15 00:59:30",112899,7.742,206.9,4.181,0.972,11.06,102.4566,5.569,6.727,90.3,0,109.9,13.46,6.34,168.9
"2010-05-15 01:00:00",112900,6.939,206.8,6.207,1.172,10.52,102.4644,5.589,6.712,90.6,0,109.9,13.46,6.36,168.8
"2010-05-15 01:00:30",112901,7.32,208.8,6.376,1.088,10.46,102.4559,5.567,6.668,90.8,0,109.9,13.47,6.34,170.8
"2010-05-15 01:01:00",112902,6.986,207.5,6.268,1.16,9.34,102.444,5.537,6.662,90.8,0,109.9,13.47,6.31,169.5
"2010-05-15 01:01:30",112903,7.367,206.1,6.21,1.249,10.21,102.442,5.532,6.627,90.8,0,109.9,13.46,6.30,168.1
"2010-05-15 01:02:00",112904,7.259,204.9,6.796,1.191,9.99,102.4417,5.531,6.593,90.8,0,109.9,13.46,6.30,166.9
"2010-05-15 01:02:30",112905,7.358,207,6.549,1.161,10.9,102.4559,5.567,6.669,90.7,0,109.9,13.46,6.34,169.0
"2010-05-15 01:03:00",112906,7.494,208.1,6.055,1.166,10.38,102.4746,5.615,6.658,90.6,0,109.9,13.46,6.39,170.1
"2010-05-15 01:03:30",112907,7.191,206.7,6.687,1.173,10.22,102.4757,5.618,6.677,90.7,0,109.9,13.46,6.39,168.7
"2010-05-15 01:04:00",112908,7.953,210.8,5.375,1.243,10.58,102.4762,5.619,6.659,90.8,0,109.9,13.46,6.39,172.8
"2010-05-15 01:04:30",112909,6.627,201.7,6.079,1.288,9.36,102.476,5.619,6.694,90.8,0,109.9,13.46,6.39,163.7
"2010-05-15 01:05:00",112910,6.61,202.7,6.194,1.153,9.47,102.4751,5.617,6.567,90.9,0,109.9,13.46,6.39,164.7
"2010-05-15 01:05:30",112911,6.885,205.7,7.018,1.202,10.65,102.4669,5.596,6.698,91.2,0,109.9,13.46,6.37,167.7
"2010-05-15 01:06:00",112912,6.733,206.4,7.084,1.142,10.39,102.4446,5.539,6.686,91.3,0,109.8,13.46,6.31,168.4
"2010-05-15 01:06:30",112913,6.838,206.6,7.504,1.204,10.3,102.4418,5.531,6.651,91.5,0,109.9,13.47,6.30,168.6
"2010-05-15 01:07:00",112914,6.362,205,7.716,1.27,9.85,102.442,5.532,6.649,91.5,0,109.9,13.47,6.30,167.0
"2010-05-15 01:07:30",112915,6.715,213.3,7.226,1.229,10.52,102.4412,5.53,6.626,91.5,0,109.9,13.47,6.30,175.3
"2010-05-15 01:08:00",112916,5.783,204.9,9.76,0.977,7.62,102.4466,5.544,6.477,91.1,0,109.9,13.47,6.32,166.9
"2010-05-15 01:08:30",112917,5.852,198.3,7.471,1.175,8.98,102.4712,5.606,6.654,91.3,0,109.9,13.47,6.38,160.3
"2010-05-15 01:09:00",112918,6.551,202.1,6.633,1.096,10.7,102.4729,5.611,6.636,91.6,0,109.9,13.47,6.38,164.1
"2010-05-15 01:09:30",112919,6.354,200,5.837,0.947,11.17,102.4729,5.611,6.778,92,0,109.8,13.47,6.38,162.0
"2010-05-15 01:10:00",112920,6.175,207.2,5.231,1.05,10.35,102.4658,5.593,6.685,92.2,0,109.9,13.47,6.36,169.2
"2010-05-15 01:10:30",112921,5.556,201.3,6.895,1.202,9,102.4454,5.541,6.685,92.5,0,109.9,13.47,6.31,163.3
"2010-05-15 01:11:00",112922,6.148,203.1,7.761,1.22,8.66,102.4423,5.533,6.539,92.5,0,109.9,13.47,6.30,165.1
"2010-05-15 01:11:30",112923,5.497,197,6.879,0.988,9.07,102.4423,5.533,6.582,92.6,0,109.9,13.47,6.30,159.0
"2010-05-15 01:12:00",112924,5.838,202.8,7.213,1.183,10.2,102.4423,5.533,6.683,92.9,0,109.9,13.47,6.30,164.8
"2010-05-15 01:12:30",112925,6.838,205,7.227,1.022,10.95,102.4423,5.533,6.69,92.9,0,109.9,13.47,6.30,167.0
"2010-05-15 01:13:00",112926,6.349,206.6,5.835,1.175,10.55,102.4423,5.533,6.655,92.9,0,109.9,13.47,6.30,168.6
"2010-05-15 01:13:30",112927,5.727,198.6,4.69,1.267,10.09,102.4423,5.533,6.61,92.8,0,109.9,13.47,6.30,160.6
"2010-05-15 01:14:00",112928,4.475,197.3,6.762,0.87,6.386,102.4423,5.533,6.405,92.7,0,109.9,13.47,6.30,159.3
"2010-05-15 01:14:30",112929,5.642,206.1,7.604,1.359,8.47,102.4423,5.533,6.53,93,0,109.9,13.47,6.30,168.1
"2010-05-15 01:15:00",112930,5.959,207.7,8.04,1.259,9.97,102.4423,5.533,6.632,93.2,0,109.9,13.48,6.30,169.7
"2010-05-15 01:15:30",112931,6.273,208.1,6.694,0.955,11.3,102.4423,5.533,6.685,93.4,0,109.9,13.48,6.30,170.1
"2010-05-15 01:16:00",112932,6.624,208.6,10.21,1.022,10.52,102.4367,5.518,6.661,93.5,0,109.9,13.47,6.29,170.6
"2010-05-15 01:16:30",112933,6.702,207.4,9.4,1.148,10.29,102.4166,5.467,6.587,93.3,0,109.9,13.47,6.24,169.4
"2010-05-15 01:17:00",112934,4.87,201.6,4.462,0.234,6.631,102.4225,5.482,6.339,93,0,109.9,13.51,6.25,163.6
"2010-05-15 01:17:30",112935,6.234,214.2,10.3,1.506,9.31,102.4231,5.484,6.588,93.2,0,109.9,13.47,6.25,176.2
"2010-05-15 01:18:00",112936,5.935,217.7,7.683,1.165,10.19,102.4245,5.487,6.592,93.3,0,109.9,13.47,6.26,179.7
"2010-05-15 01:18:30",112937,6.795,211.7,7.967,1.147,10.42,102.4158,5.465,6.533,93.3,0,109.9,13.47,6.24,173.7
"2010-05-15 01:19:00",112938,7.538,210.7,6.381,1.141,10.76,102.4084,5.446,6.558,93.1,0,109.9,13.47,6.22,172.7
"2010-05-15 01:19:30",112939,7.39,213.8,7.463,1.062,10.39,102.4081,5.445,6.539,92.9,0,109.9,13.47,6.22,175.8
"2010-05-15 01:20:00",112940,6.05,199.4,6.078,1.056,8.2,102.4098,5.45,6.462,92.6,0,109.9,13.47,6.22,161.4
"2010-05-15 01:20:30",112941,6.566,208.3,7.478,1.325,9.55,102.4189,5.473,6.497,92.6,0,109.9,13.47,6.24,170.3
"2010-05-15 01:21:00",112942,7.516,207.7,6.931,1.124,10.96,102.409,5.448,6.525,92.6,0,109.9,13.47,6.22,169.7
"2010-05-15 01:21:30",112943,6.412,200.4,7.05,1.219,9.85,102.4107,5.452,6.541,92.3,0,109.9,13.47,6.22,162.4
"2010-05-15 01:22:00",112944,6.589,206.8,6.08,1.104,10.97,102.4211,5.479,6.609,92.1,0,109.9,13.47,6.25,168.8
"2010-05-15 01:22:30",112945,6.595,203.7,8.82,1.047,10.01,102.4254,5.49,6.506,91.9,0,109.9,13.47,6.26,165.7
"2010-05-15 01:23:00",112946,5.683,203.8,8.68,1.054,8.45,102.4231,5.484,6.458,91.9,0,109.9,13.47,6.25,165.8
"2010-05-15 01:23:30",112947,5.398,207.5,4.485,0.741,7.254,102.4262,5.492,6.424,91.9,0,109.9,13.48,6.26,169.5
"2010-05-15 01:24:00",112948,6.249,203.2,8.09,1.131,9.16,102.4206,5.477,6.515,92.1,0,109.9,13.48,6.25,165.2
"2010-05-15 01:24:30",112949,6.821,207.9,8.49,1.005,10.22,102.4087,5.447,6.531,92,0,109.9,13.48,6.22,169.9
"2010-05-15 01:25:00",112950,7.037,216.2,6.174,0.964,11.38,102.4084,5.446,6.593,91.8,0,109.9,13.48,6.22,178.2
"2010-05-15 01:25:30",112951,6.661,210.1,6.24,1.263,10.15,102.4132,5.458,6.591,91.8,0,109.9,13.48,6.23,172.1
"2010-05-15 01:26:00",112952,5.505,199,3.731,1.086,7.659,102.4141,5.461,6.472,91.9,0,109.9,13.48,6.23,161.0
"2010-05-15 01:26:30",112953,6.131,203.6,3.942,1.379,8.66,102.4084,5.446,6.396,92,0,109.9,13.48,6.22,165.6
"2010-05-15 01:27:00",112954,5.977,200.9,5.996,1.002,8.46,102.4084,5.446,6.458,92.1,0,109.9,13.48,6.22,162.9
"2010-05-15 01:27:30",112955,6.874,204.4,6.583,1.264,10.06,102.4084,5.446,6.549,92.1,0,109.9,13.48,6.22,166.4
"2010-05-15 01:28:00",112956,7.965,205.1,3.782,0.671,11.75,102.4084,5.446,6.609,92.1,0,109.9,13.48,6.22,167.1
"2010-05-15 01:28:30",112957,7.408,203.9,5.932,1.153,10.23,102.4084,5.446,6.571,92,0,109.9,13.48,6.22,165.9
"2010-05-15 01:29:00",112958,6.191,197.7,5.477,1.022,7.797,102.4084,5.446,6.408,91.8,0,109.9,13.48,6.22,159.7
"2010-05-15 01:29:30",112959,6.744,200.4,5.654,1.216,8.27,102.4084,5.446,6.343,91.7,0,109.9,13.48,6.22,162.4
"2010-05-15 01:30:00",112960,5.944,195.1,0.583,0.08,6.769,102.4084,5.446,6.385,91.8,0,109.9,13.51,6.22,157.1
"2010-05-15 01:30:30",112961,7.436,203.6,6.383,1.212,10.14,102.4084,5.446,6.549,91.8,0,109.9,13.48,6.22,165.6
"2010-05-15 01:31:00",112962,7.832,206.3,5.076,0.889,11.48,102.4084,5.446,6.584,91.8,0,109.9,13.48,6.22,168.3
"2010-05-15 01:31:30",112963,7.594,205.5,4.822,1.04,10.93,102.4084,5.446,6.603,91.9,0,109.9,13.48,6.22,167.5
"2010-05-15 01:32:00",112964,6.902,201.2,6.755,1.242,9.01,102.4084,5.446,6.426,91.6,0,109.9,13.48,6.22,163.2
"2010-05-15 01:32:30",112965,6.609,200.2,6.387,1.166,8.33,102.4084,5.446,6.417,91.5,0,109.9,13.48,6.22,162.2
"2010-05-15 01:33:00",112966,5.532,195.8,0.449,0.079,6.6,102.4084,5.446,6.319,91.4,0,109.9,13.51,6.22,157.8
"2010-05-15 01:33:30",112967,6.767,202.6,6.374,1.278,9.93,102.4084,5.446,6.567,91.5,0,109.9,13.48,6.22,164.6
"2010-05-15 01:34:00",112968,7.775,207.7,4.141,0.567,11.66,102.4084,5.446,6.625,91.6,0,109.9,13.48,6.22,169.7
"2010-05-15 01:34:30",112969,7.455,206.9,3.151,0.912,11.5,102.4087,5.447,6.624,91.6,0,109.9,13.48,6.22,168.9
"2010-05-15 01:35:00",112970,6.42,199.5,6.371,1.25,9.09,102.4084,5.446,6.445,91.5,0,109.9,13.48,6.22,161.5
"2010-05-15 01:35:30",112971,5.77,197.6,6.344,1.085,7.937,102.4084,5.446,6.46,91.2,0,109.9,13.47,6.22,159.6
"2010-05-15 01:36:00",112972,5.024,196.5,1.417,0.124,6.4,102.4124,5.456,6.387,91.2,0,109.9,13.51,6.23,158.5
"2010-05-15 01:36:30",112973,6.924,202.9,6.613,1.251,10.13,102.4138,5.46,6.519,91.4,0,109.9,13.47,6.23,164.9
"2010-05-15 01:37:00",112974,7.316,206.2,3.635,0.812,11.62,102.4149,5.463,6.642,91.6,0,109.9,13.48,6.23,168.2
"2010-05-15 01:37:30",112975,7.598,206.8,4.439,0.554,11.81,102.4084,5.446,6.609,91.6,0,109.9,13.47,6.22,168.8
"2010-05-15 01:38:00",112976,6.815,202.5,7.196,1.43,9.85,102.4084,5.446,6.513,91.4,0,109.9,13.47,6.22,164.5
"2010-05-15 01:38:30",112977,5.587,198.7,6.687,1.166,8.08,102.4084,5.446,6.459,91.3,0,109.9,13.48,6.22,160.7
"2010-05-15 01:39:00",112978,5.476,196,5.446,1.028,7.116,102.4084,5.446,6.32,91.3,0,109.9,13.48,6.22,158.0
"2010-05-15 01:39:30",112979,5.768,197.3,6.926,1.275,8.69,102.4084,5.446,6.463,91.6,0,109.9,13.48,6.22,159.3
"2010-05-15 01:40:00",112980,6.752,201.4,5.333,1.17,10.52,102.4084,5.446,6.615,91.9,0,109.9,13.48,6.22,163.4
"2010-05-15 01:40:30",112981,6.87,202.6,2.763,0.896,11.72,102.4084,5.446,6.629,92,0,109.9,13.48,6.22,164.6
"2010-05-15 01:41:00",112982,6.698,199.3,5.235,0.855,10.94,102.4084,5.446,6.568,92.1,0,109.9,13.48,6.22,161.3
"2010-05-15 01:41:30",112983,4.841,185.8,1.038,0.125,6.648,102.4084,5.446,6.37,92,0,109.9,13.52,6.22,147.8
"2010-05-15 01:42:00",112984,5.883,192.9,6.848,1.278,8.25,102.4076,5.444,6.397,92.2,0,109.9,13.48,6.22,154.9
"2010-05-15 01:42:30",112985,5.814,190.1,6.869,1.166,8.39,102.4016,5.429,6.457,92.3,0,109.9,13.48,6.20,152.1
"2010-05-15 01:43:00",112986,5.597,189.1,5.078,1.029,7.873,102.3963,5.415,6.421,92.3,0,109.9,13.48,6.19,151.1
"2010-05-15 01:43:30",112987,7.247,198.4,4.746,0.984,11.53,102.3903,5.4,6.545,92.4,0,109.9,13.49,6.17,160.4
"2010-05-15 01:44:00",112988,7.269,199.4,5.192,0.892,11.32,102.3872,5.392,6.53,92.3,0,109.9,13.48,6.16,161.4
"2010-05-15 01:44:30",112989,6.555,196.7,5.351,1.241,9.74,102.3929,5.406,6.485,92.1,0,109.9,13.48,6.18,158.7
"2010-05-15 01:45:00",112990,5.356,193.3,3.868,0.85,7.392,102.3937,5.409,6.389,91.8,0,109.9,13.48,6.18,155.3
"2010-05-15 01:45:30",112991,5.957,193.1,6.018,1.165,7.632,102.4019,5.43,6.302,91.2,0,109.9,13.48,6.20,155.1
"2010-05-15 01:46:00",112992,6.722,199.9,6.542,1.22,9.71,102.4084,5.446,6.374,91,0,109.9,13.48,6.22,161.9
"2010-05-15 01:46:30",112993,6.738,201.2,6.85,1.236,9.78,102.4084,5.446,6.476,90.8,0,109.9,13.49,6.22,163.2
"2010-05-15 01:47:00",112994,7.284,203.6,5.789,1.063,11.02,102.4084,5.446,6.598,90.4,0,109.9,13.49,6.22,165.6
"2010-05-15 01:47:30",112995,7.296,201.5,5.761,1.081,10.83,102.4141,5.461,6.531,90,0,109.9,13.49,6.23,163.5
"2010-05-15 01:48:00",112996,6.506,197.9,6.198,1.294,8.59,102.4231,5.484,6.411,89.6,0,109.9,13.48,6.25,159.9
"2010-05-15 01:48:30",112997,6.498,198,6.589,1.266,8.58,102.4262,5.492,6.423,89.4,0,109.9,13.48,6.26,160.0
"2010-05-15 01:49:00",112998,5.622,192.2,0.515,0.078,6.788,102.4313,5.505,6.465,89.2,0,109.9,13.52,6.28,154.2
"2010-05-15 01:49:30",112999,7.396,199.9,6.27,1.131,10.33,102.4367,5.518,6.573,88.9,0,109.9,13.49,6.29,161.9
"2010-05-15 01:50:00",113000,7.33,199.9,6.024,1.246,10.08,102.4415,5.531,6.581,88.7,0,109.9,13.49,6.30,161.9